Location: Diamond Cave
(35.9851°N, 93.2327°W)
Time: 02:26:03
(UTC+00:00)

Hubble Space Telescope - Visible Passes

Search period start: 23 April 2026 00:00
Search period end: 03 May 2026 00:00
Orbit: 474 x 477 km, 28.5° (Epoch: 22 April)

Date Brightness Start Highest point End Pass type
(mag) Time Alt. Az. Time Alt. Az. Time Alt. Az.
24 Apr 2.4 02:17:59 10° SSW 02:19:54 17° S 02:19:54 17° S visible
25 Apr 2.2 01:46:46 10° SSW 01:49:24 18° SSE 01:50:46 15° SE visible
26 Apr 2.6 02:54:16 10° WSW 02:55:33 17° SW 02:55:33 17° SW visible
27 Apr 1.8 02:23:01 10° WSW 02:26:10 26° S 02:26:11 26° S visible
28 Apr 1.8 01:51:45 10° WSW 01:54:55 25° S 01:56:45 18° SE visible
29 Apr 2.8 03:00:11 10° WSW 03:01:17 15° SW 03:01:17 15° SW visible
30 Apr 2.2 02:28:54 10° WSW 02:31:39 19° SSW 02:31:45 19° S visible
1 May 2.3 01:57:36 10° WSW 02:00:22 19° SSW 02:02:11 14° SSE visible
2 May 2.4 01:26:19 10° WSW 01:29:05 19° SSW 01:31:50 10° SE visible
